Regional Weather Roundup
Issued by NWS Cleveland, OH

Home | Current Version | Previous Version | Graphics & Text | Print | Product List | Glossary On
Versions: 1 2 3 4 5 6 7 8 9 10 11 12 13 14 15 16 17 18 19 20 21 22 23 24 25 26 27 28 29 30 31 32 33 34 35 36 37 38 39 40 41 42 43 44 45 46 47 48 49 50
000
ASUS41 KCLE 041400
RWRCLE
OHIO REGIONAL WEATHER ROUNDUP
NATIONAL WEATHER SERVICE WILMINGTON, OH
900 AM EST WED MAR 04 2015

NOTE: "FAIR" INDICATES FEW OR NO CLOUDS BELOW 12,000 FEET WITH NO
SIGNIFICANT WEATHER AND/OR OBSTRUCTIONS TO VISIBILITY.

OHZ001>008-015>018-024>027-034-035-043-044-041500-
   NORTHWEST OHIO

CITY           SKY/WX    TMP DP  RH WIND       PRES   REMARKS
DEFIANCE       CLOUDY    32  25  75 VRB6      29.97R WCI  26
FINDLAY        CLOUDY    33  25  72 NW8       29.97R WCI  26
TOLEDO EXPRESS CLOUDY    31  25  78 W7        29.95R WCI  24
TOLEDO EXEC    CLOUDY    32  25  75 W5        29.96R WCI  27
LIMA           CLOUDY    33  26  75 N9        29.95R WCI  25
$$

OHZ009>014-019>023-028>033-038-089-041500-
   NORTHEAST OHIO

CITY           SKY/WX    TMP DP  RH WIND       PRES   REMARKS
CLE-HOPKINS    CLOUDY    32  25  75 NW7       29.98R WCI  26
CLE-LAKEFRONT  CLOUDY    32  29  88 W6        29.95R WCI  26
CUY CO. ARPT   CLOUDY    34  27  75 NW9       29.94R WCI  26
LORAIN-ELYRIA  CLOUDY    31  25  78 N9        29.96R WCI  23
ASHTABULA      CLOUDY    31  24  75 NW7       29.92R WCI  24
AKRON-CANTON   CLOUDY    34  29  82 W6        29.92R WCI  29
WOOSTER        NOT AVBL
MANSFIELD      CLOUDY    32  28  85 NW6       29.94R WCI  26
YOUNGSTOWN     CLOUDY    34  29  82 W7        29.91R WCI  28
$$

OHZ042-051>053-060>062-070>072-077>081-041500-
  SOUTHWEST OHIO

CITY           SKY/WX    TMP DP  RH WIND       PRES   REMARKS
CINC-COVINGTON CLOUDY    35  33  92 N9        29.96S FOG     WCI  28
CINC-LUNKEN    CLOUDY    35  34  96 N9        29.99R FOG     WCI  28
HAMILTON       CLOUDY    35  34  96 CALM      29.99S FOG
DAYTON         NOT AVBL
WRIGHT-PAT AFB CLOUDY    34  32  93 W6        29.97R WCI  29
DAYTON GENERAL CLOUDY    34  33  96 NW5       29.97R FOG     WCI  30
WILMINGTON     CLOUDY    33  31  92 NW5       29.96R FOG     WCI  29
$$

OHZ036-037-039>041-045>050-054>059-063>069-073>076-082>088-041500-
  CENTRAL AND SOUTHEAST OHIO

CITY           SKY/WX    TMP DP  RH WIND       PRES   REMARKS
COLUMBUS       CLOUDY    34  34 100 W3        29.96R FOG
OSU AIRPORT    CLOUDY    34  32  92 W5        29.96R FOG     WCI  30
BOLTON FIELD   CLOUDY    34  34 100 CALM      29.96R FOG
RICKENBACK AFB NOT AVBL
NEWARK         CLOUDY    35  33  92 W3        29.95R FOG
MARION         CLOUDY    34  29  82 NW6       29.97R HAZE    WCI  29
LANCASTER      CLOUDY    35  33  92 CALM      29.95R FOG
ZANESVILLE     CLOUDY    34  33  96 NW3       29.95R FOG
NEW PHILLY     CLOUDY    35  32  88 SW3       29.95R FOG
$$


USA.gov is the U.S. government's official web portal to all federal, state and local government web resources and services.